Location: Drawsko Pomorskie
(53.5317°N, 15.8111°E)
Time: 11:37:40
(UTC+01:00)

ISS - Visible Passes

Search period start: 26 March 2019 00:00
Search period end: 05 April 2019 01:00
Orbit: 408 x 411 km, 51.6° (Epoch: 26 March)

Date Brightness Start Highest point End Pass type
(mag) Time Alt. Az. Time Alt. Az. Time Alt. Az.
26 Mar -3.2 19:28:03 10° SW 19:31:11 40° SSE 19:33:14 18° E visible
26 Mar -2.0 21:04:17 10° W 21:06:00 27° WSW 21:06:00 27° WSW visible
27 Mar -3.8 20:13:39 10° WSW 20:16:56 62° S 20:17:28 51° SE visible
27 Mar -0.6 21:50:08 10° W 21:50:14 11° W 21:50:14 11° W visible
28 Mar -3.6 19:23:01 10° WSW 19:26:17 55° S 19:28:52 15° E visible
28 Mar -2.5 20:59:27 10° W 21:01:37 35° WSW 21:01:37 35° WSW visible
29 Mar -3.7 20:08:46 10° W 20:12:03 62° S 20:12:58 41° ESE visible
29 Mar -0.8 21:45:21 10° W 21:45:43 12° W 21:45:43 12° W visible
30 Mar -3.7 19:18:05 10° W 19:21:22 63° S 19:24:17 13° E visible
30 Mar -2.7 20:54:35 10° W 20:57:02 35° SW 20:57:02 35° SW visible
31 Mar -3.5 21:03:52 10° W 21:07:06 52° SSW 21:08:19 32° SE visible
31 Mar -0.9 22:40:44 10° W 22:41:04 12° WSW 22:41:04 12° WSW visible
01 Apr -3.5 20:13:08 10° W 20:16:25 60° S 20:19:35 11° ESE visible
01 Apr -2.3 21:49:48 10° W 21:52:20 27° SW 21:52:20 27° SW visible
02 Apr -2.9 20:58:58 10° W 21:02:04 37° SSW 21:03:36 22° SSE visible
03 Apr -3.1 20:08:11 10° W 20:11:23 46° SSW 20:14:34 10° ESE visible
03 Apr -1.7 21:45:14 10° WSW 21:47:26 17° SW 21:47:39 17° SSW visible
04 Apr -2.0 20:54:09 10° W 20:56:52 23° SSW 20:58:57 14° SSE visible
